www.pogodaiklimat.ru

Погода и климат >> Архив погоды >> Малайзия >> Kuala Lumpur Int Airport


ПОГОДА в Kuala Lumpur Int Airport

  • Прогноз погоды в Kuala Lumpur Int Airport
  • Монитор погоды в Kuala Lumpur Int Airport
  • Климат города

АРХИВ ПОГОДЫ в Kuala Lumpur Int Airport

Время (UTC), дата Ветер
(напр.,м/с)
 
Видим.   Явления Облачность Т
(С)
Тd
(С)
f
(%)
Тe
(С)
Тes
(С)
Комфортность P
(гПа)
Po
(гПа)
Тmin
(С)
Tmax
(С)
R
(мм)
R24
(мм)
S
(см)
09 18.02 ЮЗ 4 10 км мгла 9/4 540 м
[Cu med, cong Ac lent Ci sp]
+31.0 +23.6 65 +42 +44 опасность
перегрева
1006.5 1004.6
12 18.02 З 2 10 км зарница 9/3 500 м
[Cb cap Ac lent Ci sp]
+28.8 +24.0 75 +40 +40 очень
душно
1008.4 1006.5 +32.8
15 18.02 С 2 10 км мгла 9/3 900 м
[Sc Ac lent Ci sp]
+28.1 +22.3 71 +37 +37 очень
душно
1010.7 1008.8
18 18.02 В 2 9000 м зарница 9/3 500 м
[Cb cap Ac lent Ci sp]
+27.2 +23.2 79 +37 +37 очень
душно
1010.0 1008.1
21 18.02 В 2 10 км мгла 9/3 900 м
[Sc Ac lent Ci sp]
+25.5 +22.2 82 +33 +33 очень
душно
1008.9 1007.0
00 19.02 штиль 0 9000 м мгла 9/1 500 м
[Cb cap Ac lent Ci sp]
+25.0 +22.3 85 +33 +33 очень
душно
1009.5 1007.6 +24.8
03 19.02 СВ 4 10 км мгла 9/3 500 м
[Cb calv Ac trans Ci fib]
+31.8 +22.6 58 +41 +46 опасность
перегрева
1009.5 1007.6
06 19.02 ЮЗ 2 10 км мгла 9 баллов +33.2 +23.9 58 +45 +47 опасность
перегрева
1008.0 1006.1
09 19.02 Ю 3 9000 м гроза без осадков 9/5 500 м
[Cb cap Ac lent Ci fib]
+32.0 +23.4 60 +43 +44 опасность
перегрева
1005.8 1003.9
12 19.02 С 2 10 км мгла {гроза} 9/1 900 м
[Sc diur, vesp Ac lent Ci sp]
+27.3 +22.7 76 +36 +36 очень
душно
1007.6 1005.7 +34.1
15 19.02 В 3 9000 м мгла 9/1 900 м
[Sc Ac lent Ci sp]
+28.2 +22.7 72 +37 +37 очень
душно
1009.9 1008.0
18 19.02 ЮВ 1 10 км мгла 8/1 900 м
[Sc Ac lent Ci sp]
+26.3 +23.7 86 +36 +36 очень
душно
1009.6 1007.7
21 19.02 В 2 10 км зарница 9/4 500 м
[Cb cap Ac lent Ci sp]
+26.1 +22.7 82 +35 +35 очень
душно
1008.9 1007.0
00 20.02 ЮЗ 1 10 км мгла 9/3 500 м
[Cb cap Ac lent Ci sp]
+24.6 +22.6 89 +32 +33 очень
душно
1010.2 1008.3 +24.5
03 20.02 ЮВ 2 10 км мгла 9/1 540 м
[Cu med, cong Ac lent Ci sp]
+31.2 +22.1 58 +40 +48 очень
душно
1010.3 1008.4
06 20.02 ЮВ 3 10 км мгла 9/4 540 м
[Cu med, cong Ac lent Ci sp]
+33.4 +22.1 52 +42 +48 опасность
перегрева
1007.4 1005.5
09 20.02 Ю 3 10 км мгла 9/4 540 м
[Cu hum Ac lent Ci sp]
+32.1 +23.6 61 +43 +45 опасность
перегрева
1005.8 1003.9
12 20.02 Ю 2 10 км мгла 8/1 900 м
[Sc Ac lent Ci sp]
+28.2 +24.6 81 +40 +40 очень
душно
1007.1 1005.2 +34.0
15 20.02 ЮВ 2 9000 м мгла 9/1 900 м
[Sc Ac trans Ci fib]
+27.6 +24.1 81 +38 +38 очень
душно
1008.9 1007.0
18 20.02 В 2 10 км мгла 9/1 900 м
[Sc Ac lent Ci sp]
+26.8 +23.2 81 +36 +36 очень
душно
1007.9 1006.0
21 20.02 Ю 1 9000 м мгла 9/1 900 м
[Sc Ac lent Ci sp]
+25.3 +22.7 86 +33 +33 очень
душно
1006.5 1004.6
00 21.02 СВ 2 10 км мгла 9/3 500 м
[Cu Sc Ac lent Ci sp]
+25.3 +21.9 81 +33 +33 очень
душно
1008.4 1006.5 +24.4
03 21.02 В 2 10 км мгла 9/3 500 м
[Cb cap Ac lent Ci sp]
+31.2 +22.5 60 +41 +46 опасность
перегрева
1009.0 1007.1
06 21.02 ЮВ 2 10 км мгла 9/4 540 м
[Cu med, cong Ac lent Ci sp]
+34.1 +21.9 49 +43 +50 опасность
перегрева
1007.1 1005.2
09 21.02 ЮЗ 4 10 км мгла 9/3 500 м
[Cb cap Ac lent Ci sp]
+31.7 +23.7 63 +43 +45 опасность
перегрева
1004.8 1002.9
12 21.02 Ю 1 10 км мгла 9/1 900 м
[Sc Ac lent Ci sp]
+29.1 +24.9 78 +42 +42 опасность
перегрева
1006.0 1004.1 +34.2
15 21.02 штиль 0 10 км мгла 8/1 900 м
[Sc Ac trans Ci sp]
+27.8 +24.4 82 +39 +39 очень
душно
1007.8 1005.9
18 21.02 В 2 10 км зарница 9/4 500 м
[Cb cap Ac lent Ci sp]
+27.0 +23.3 80 +36 +36 очень
душно
1008.3 1006.4
21 21.02 З 1 7000 м гроза без осадков 9/4 500 м
[Cb cap Ac lent Ci sp]
+26.0 +23.8 88 +36 +36 очень
душно
1007.7 1005.8
00 22.02 В 2 8000 м мгла {гроза} 9/3 900 м
[Sc Ac lent Ci sp]
+26.1 +23.9 88 +36 +36 очень
душно
1008.3 1006.4 +25.3
03 22.02 ЮВ 2 10 км мгла 9/3 540 м
[Cu med, cong Ac lent Ci sp]
+30.0 +23.5 68 +41 +47 опасность
перегрева
1009.4 1007.5
06 22.02 Ю 1 10 км мгла 9/4 540 м
[Cu med, cong Ac lent Ci sp]
+32.0 +23.0 59 +42 +51 опасность
перегрева
1007.0 1005.1
09 22.02 Ю 3 10 км мгла 9/3 500 м
[Cb cap Ac lent Ci sp]
+32.1 +23.9 62 +44 +46 опасность
перегрева
1004.0 1002.2
12 22.02 С 1 10 км гроза без осадков 9/3 500 м
[Cb cap Ac lent Ci sp]
+28.8 +24.0 75 +40 +40 очень
душно
1006.4 1004.5 +32.9
15 22.02 ЮВ 3 9000 м гроза без осадков 9/4 500 м
[Cb cap Ac lent Ci sp]
+26.7 +22.8 79 +35 +35 очень
душно
1009.6 1007.7
18 22.02 СВ 3 8000 м зарница {гроза} 9/4 500 м
[Cb cap Ac lent Ci sp]
+26.1 +22.9 83 +35 +35 очень
душно
1008.8 1006.9
21 22.02 З 2 10 км зарница 9/3 500 м
[Cb cap Ac lent Ci sp]
+25.3 +23.3 89 +34 +34 очень
душно
1008.5 1006.6
00 23.02 СВ 2 8000 м мгла 9/1 500 м
[Sc Ac lent Ci sp]
+25.5 +23.7 90 +35 +35 очень
душно
1009.7 1007.8 +24.7
03 23.02 СЗ 1 10 км мгла 9/3 540 м
[Cu med, cong Ac lent Ci fib]
+30.3 +24.0 69 +42 +49 опасность
перегрева
1011.8 1009.9
06 23.02 Ю 1 10 км мгла 9/3 540 м
[Cu Sc Ac lent Ci sp]
+32.6 +23.4 58 +43 +53 опасность
перегрева
1008.7 1006.8
09 23.02 З 4 10 км мгла 9/3 500 м
[Cb cap Ac lent Ci fib]
+31.3 +23.7 64 +42 +44 опасность
перегрева
1006.6 1004.7
12 23.02 В 3 8000 м гроза, ливневой дождь 10/4 240 м
[Cb cap Ac lent Cs]
+25.4 +23.4 89 +34 +34 очень
душно
1009.8 1007.9 +32.7 2
15 23.02 СЗ 1 10 км в посл. час гроза 9/4 500 м
[Cb cap Ac lent Ci sp]
+25.3 +24.0 93 +35 +35 очень
душно
1012.2 1010.3
18 23.02 С 2 8000 м мгла 9/1 900 м
[Sc Ac lent Ci sp]
+24.8 +23.6 93 +34 +34 очень
душно
1011.1 1009.2 0.6
21 23.02 С 2 8000 м зарница 9/3 500 м
[Cb cap Ac lent Ci sp]
+24.8 +23.3 91 +33 +33 очень
душно
1009.8 1007.9
00 24.02 С 2 7000 м мгла {туман} 9/1 900 м
[Sc Ac lent Ci sp]
+25.3 +23.6 90 +34 +35 очень
душно
1010.8 1008.9 +24.7 3
03 24.02 В 3 10 км мгла 9/3 540 м
[Cu med, cong Ac lent Ci sp]
+30.8 +23.2 64 +41 +46 опасность
перегрева
1012.6 1010.7
06 24.02 В 5 12 км мгла 9/3 540 м
[Cu hum Ac lent Ci sp]
+31.6 +22.9 60 +42 +46 опасность
перегрева
1010.4 1008.5
09 24.02 В 3 10 км мгла 9/3 500 м
[Cb cap Ac lent Ci sp]
+31.9 +23.6 62 +43 +45 опасность
перегрева
1007.6 1005.7
12 24.02 В 3 10 км зарница 9/1 500 м
[Cb cap Ac lent Ci sp]
+29.4 +23.7 71 +40 +40 очень
душно
1009.2 1007.3 +32.8
15 24.02 В 3 10 км зарница 8/3 500 м
[Cb cap Ac trans Ci fib]
+27.9 +22.8 74 +37 +37 очень
душно
1011.0 1009.1
18 24.02 В 3 10 км зарница 9/3 500 м
[Cb cap Ac lent Ci fib]
+26.6 +22.0 76 +34 +34 очень
душно
1010.2 1008.3
21 24.02 штиль 0 10 км зарница 9/3 500 м
[Cb cap Ac lent Ci sp]
+24.4 +22.5 89 +32 +32 очень
душно
1009.0 1007.1
00 25.02 В 3 10 км мгла 9/1 500 м
[Cb cap Ac lent Ci sp]
+26.4 +20.8 71 +33 +33 очень
душно
1010.5 1008.6 +24.0
03 25.02 СВ 5 12 км мгла 8/1 500 м
[Cb cap Ac lent Ci sp]
+31.9 +21.3 54 +40 +45 очень
душно
1011.6 1009.7
06 25.02 СВ 3 12 км мгла 9/4 540 м
[Cu med, cong Ac lent Ci sp]
+34.6 +20.6 44 +41 +47 опасность
перегрева
1009.1 1007.2

 

Местоположение метеостанции Kuala Lumpur Int Airport (Малайзия): широта 2.72 долгота 101.70 высота над уровнем моря 17 м.

В архиве по умолчанию представлена погода в Kuala Lumpur Int Airport за последнюю неделю. Архивные данные за месяц целиком и за предыдущие месяцы, начиная с января 2011 года, Вы можете получить, выбрав интересующий диапазон дат из раскрывающегося списка и нажав кнопку "Ввод!".

Внимание! Время в таблицах - всемирное. Для получения местного времени необходимо прибавить поправку, которая в Kuala Lumpur Int Airport равна 7 ч.

Смотрите также архив погоды в соседних городах и на ближайших метеорологических станциях:

Погода в Kuala Lumpur (Малайзия) (48 км)
Погода в Malacca (Малайзия) (79 км)
Погода в Cameron Highlands (Малайзия) (198 км)
Погода в Sitiawan (Малайзия) (200 км)
Погода в Kuantan (Малайзия) (205 км)
Погода в Ipoh (Малайзия) (216 км)
Погода в Johore Bharu / Senai (Малайзия) (250 км)
Погода в Pekanbaru (Индонезия) (252 км)
Погода в Singapore (Сингапур) (295 км)
Погода в Batam Hang Nadim Airport (Индонезия) (322 км)

Пояснения к столбцам:

Ветер - указаны скорость ветра в м/с - средняя за 10 мин, порывы в срок и между сроками (в фигурных скобках) и направление, откуда дует ветер: С - северный, СВ - северо-восточный, В - восточный, ЮВ - юго-восточный, Ю - южный, ЮЗ - юго-западный, З - западный, СЗ - северо-западный.
Видимость - горизонтальная дальность видимости в метрах или километрах. При видимости от 1 до 10 км при отсутствии осадков обычно наблюдается дымка, при ухудшении видимости до 1 км и менее - туман. В сухую погоду видимость может ухудшаться дымом, пылью или мглою.
Явления - указаны атмосферные явления, наблюдавшиеся в срок или в последний час перед сроком; фигурными скобками обозначены явления, наблюдавшиеся между сроками (за 1-3 часа до срока); квадратными скобками обозначены град или гололедные отложения с указанием их диаметра в мм.
Облачность - указаны через наклонную черту общая и нижняя облачность в баллах и высота нижней границы облаков в метрах; квадратными скобками обозначены формы облаков: Ci - перистые, Cs - перисто-слоистые, Cc - перисто-кучевые, Ac - высококучевые, As - высокослоистые, Sc - слоисто-кучевые, Ns - слоисто-дождевые, Cu - кучевые, Cb - кучево-дождевые. Подробнее классификацию облаков см. в Атласе облаков (PDF).
T - Температура воздуха - температура, измеренная на высоте 2 м над землей.
Td - Температура точки росы - температура, при понижении до которой содержащийся в воздухе водяной пар достигнет насыщения.
f - Относительная влажность воздуха - влажноcть воздуха, измеренная на высоте 2 м над землей.
Te - Эффективная температура - температура, которую ощущает одетый по сезону человек в тени. Характеристика душности погоды. При расчете учитывается влияние влажности воздуха и скорости ветра на теплоощущения человека.
Tes - Эффективная температура на солнце - температура, которую ощущает человек, с поправкой на солнечный нагрев. Характеристика знойности погоды. Зависит от высоты солнца над горизонтом, облачности и скорости ветра. Ночью, в пасмурную погоду, а также при ветре 12 м/с и более поправка равна нулю.
P - Атмосферное давление - приведенное к уровню моря атмосферное давление.
Po - Атмосферное давление - измеренное на уровне метеостанции атмосферное давление.
Tmin - Минимальная температура - минимум температуры воздуха на высоте 2 м над землей.
Tmax - Максимальная температура - максимум температуры воздуха на высоте 2 м над землей.
R - Количество осадков - Количество выпавших осадков за период времени, мм. При наведении курсора мыши на число - период времени, за который выпало указанное количество осадков.
R24 - Количество осадков - Количество выпавших осадков за 24 часа, мм.
S - Снежный покров - Высота снежного покрова, см. При наведении курсора мыши на число - состояние снежного покрова и степень покрытия местности в баллах.